Notices

What's New in latest release on October 27, 2021:

- Updated email addresses on the CDO Contacts page.

- Updated station operator of Churchill Falls (Climate ID: 8501130).

- Radar site name change from Jimmy Lake to Cold Lake on October 27, 2021.

Hourly Data Report for June 03, 2021

ST-JOVITE
QUEBEC
Current Station Operator: ECCC - MSC

46°04'49.000" N
74°33'21.000" W
238.50 m
703GDKB
71376
WJT

Download Data

Hourly Data (June 2021)
Hourly Data Report for June 3, 2021
TIME
LST
Temp Definition
°C
Dew Point Definition
°C
Rel Hum Definition
%
Precip. Amount Definition
mm

Wind Dir Definition
10's deg

Wind Spd Definition
km/h
Visibility Definition
km
Stn Press Definition
kPa
Hmdx Definition


Wind Chill Definition


Weather Definition


00:00 11.7 9.0 83 0.0 0 1   98.84     LegendNANA
01:00 11.9 9.4 85 0.0 4 1   98.81     LegendNANA
02:00 11.8 10.0 89 0.0   0   98.76     LegendNANA
03:00 11.3 10.1 93 0.0 0 1   98.74     LegendNANA
04:00 11.3 10.2 93 0.0   0   98.71     LegendNANA
05:00 11.4 10.3 93 0.0 6 1   98.67     LegendNANA
06:00 12.6 11.2 91 0.0   0   98.69     LegendNANA
07:00 13.6 13.3 98 2.0   0   98.69     LegendNANA
08:00 15.3 14.9 98 0.0 0 1   98.63     LegendNANA
09:00 15.8 14.9 95 0.0   0   98.56     LegendNANA
10:00 16.1 15.1 94 1.0 12 2   98.47     LegendNANA
11:00 15.9 15.3 96 0.0 0 1   98.43     LegendNANA
12:00 16.5 15.8 96 0.0 0 1   98.37     LegendNANA
13:00 15.9 15.3 96 3.0 0 1   98.33     LegendNANA
14:00 16.6 16.1 97 4.0 24 2   98.27     LegendNANA
15:00 16.6 16.1 97 0.0 0 1   98.19     LegendNANA
16:00 16.9 16.0 94 0.0 21 1   98.15     LegendNANA
17:00 17.7 16.6 94 0.0 22 3   98.08     LegendNANA
18:00 17.4 16.3 94 0.0 20 2   98.04     LegendNANA
19:00 16.5 16.3 99 0.0 0 1   98.06     LegendNANA
20:00 15.8 15.6 99 0.0   0   98.10     LegendNANA
21:00 14.1 13.9 99 0.0   0   98.15     LegendNANA
22:00 13.0 12.9 99 0.0   0   98.11     LegendNANA
23:00 12.0 11.9 99 0.0   0   98.11     LegendNANA

Notes on Data Quality.

Legend

  • E = Estimated
  • M = Missing
  • NA = Not Available*
  • [empty] = Indicates an unobserved value
Date modified: